This demonstration page uses our WeatherBlox Daily Observations layout. Learn more.

Left ArrowRight Arrow

38.80484, -77.04692

Hourly Observations for May 7, 2019

Temp ( °F °C ) Dew Point ( °F °C ) Humidity (%) Winds ( mph kmh ) Pressure ( in mb ) Visibility ( mi km ) Precip ( " mm )
12:52 am 00:52 Clear 64 17.8 59 15 84 84 S 7 11 30.11 1020 10 16 N/A
1:52 am 01:52 Clear 63 17.2 59 15 87 87 SSW 6 9 30.11 1020 10 16 N/A
2:52 am 02:52 Clear 63 17.2 59 15 87 87 SSW 6 9 30.11 1020 10 16 N/A
3:52 am 03:52 Mostly Clear 62 16.7 59 15 90 90 SSW 5 7 30.12 1020 10 16 N/A
4:52 am 04:52 Mostly Clear 62 16.7 58 14.4 86 86 SSW 8 13 30.11 1020 10 16 N/A
5:52 am 05:52 Mostly Clear 62 16.7 58 14.4 86 86 SSW 6 9 30.11 1020 10 16 N/A
6:52 am 06:52 Mostly Sunny 62 16.7 58 14.4 86 86 SSW 7 11 30.12 1020 10 16 N/A
7:52 am 07:52 Mostly Sunny 65 18.3 59 15 81 81 SSW 5 7 30.15 1021 10 16 N/A
8:52 am 08:52 Mostly Sunny 67 19.4 60 15.6 79 79 S 7 11 30.15 1021 10 16 N/A
9:52 am 09:52 Partly Cloudy 69 20.6 61 16.1 76 76 S 9 15 30.16 1021 10 16 N/A
10:52 am 10:52 Mostly Cloudy 72 22.2 62 16.7 71 71 S 9 15 30.16 1021 10 16 N/A
11:52 am 11:52 Partly Cloudy 75 23.9 63 17.2 66 66 S 10 17 30.16 1021 10 16 N/A
12:52 pm 12:52 Mostly Sunny 77 25 62 16.7 60 60 S 14 22 30.15 1021 10 16 N/A
1:52 pm 13:52 Mostly Cloudy 77 25 61 16.1 58 58 S 15 24 30.14 1021 10 16 N/A
2:52 pm 14:52 Partly Cloudy 80 26.7 61 16.1 52 52 S 15 24 30.11 1020 10 16 N/A
3:52 pm 15:52 Partly Cloudy 79 26.1 59 15 50 50 S 13 20 30.09 1019 10 16 N/A
4:52 pm 16:52 Partly Cloudy 79 26.1 60 15.6 52 52 S 14 22 30.08 1019 10 16 N/A
5:52 pm 17:52 Mostly Cloudy 77 25 60 15.6 56 56 S 12 19 30.08 1019 10 16 N/A
6:52 pm 18:52 Mostly Cloudy 79 26.1 57 13.9 47 47 SSW 12 19 30.08 1019 10 16 N/A
7:52 pm 19:52 Mostly Cloudy 74 23.3 59 15 60 60 S 8 13 30.09 1019 10 16 N/A
8:52 pm 20:52 Partly Cloudy 71 21.7 60 15.6 68 68 S 8 13 30.09 1019 10 16 N/A
9:52 pm 21:52 Partly Cloudy 70 21.1 62 16.7 76 76 S 8 13 30.10 1019 10 16 N/A
10:52 pm 22:52 Partly Cloudy 69 20.6 61 16.1 76 76 S 8 13 30.11 1020 10 16 N/A
11:52 pm 23:52 Partly Cloudy 68 20 61 16.1 78 78 S 7 11 30.11 1020 10 16 N/A

Powered by AerisWeather